📊 Raw Sensor Data
Showing records 34351 to 34375 of 84,844 total
| ID | Distance (ft) | Battery V | Battery A | Int Temp (°F) | Int Humid (%) | Ext Temp (°F) | Solar V | RSSI | SNR | Time Stamp |
|---|---|---|---|---|---|---|---|---|---|---|
| 50506 | 15.7 | 3.82 | 0 | 107 | 47 | 96 | 5.10 | -71 | 8 | 08/28/2025 05:00 PM |
| 50505 | 15.7 | 3.83 | 0 | 108 | 46 | 96 | 5.10 | -73 | 8 | 08/28/2025 04:45 PM |
| 50504 | 15.7 | 3.83 | 0 | 108 | 45 | 96 | 5.10 | -72 | 8 | 08/28/2025 04:30 PM |
| 50503 | 15.7 | 3.83 | 0 | 108 | 45 | 97 | 5.10 | -71 | 7 | 08/28/2025 04:15 PM |
| 50502 | 15.6 | 3.83 | 0 | 108 | 44 | 95 | 5.10 | -71 | 8 | 08/28/2025 04:00 PM |
| 50501 | 15.6 | 4.06 | 0 | 108 | 44 | 98 | 5.10 | -72 | 8 | 08/28/2025 03:45 PM |
| 50500 | 15.6 | 3.83 | 0 | 107 | 43 | 93 | 5.20 | -73 | 8 | 08/28/2025 03:30 PM |
| 50499 | 15.6 | 3.83 | 0 | 107 | 42 | 95 | 5.20 | -73 | 8 | 08/28/2025 03:15 PM |
| 50498 | 15.5 | 3.86 | 0 | 107 | 41 | 94 | 5.10 | -72 | 7 | 08/28/2025 03:00 PM |
| 50497 | 15.6 | 4.06 | 0 | 106 | 41 | 93 | 5.10 | -72 | 7 | 08/28/2025 02:45 PM |
| 50496 | 15.6 | 3.83 | 0 | 104 | 41 | 93 | 5.10 | -72 | 8 | 08/28/2025 02:30 PM |
| 50495 | 15.6 | 3.83 | 0 | 101 | 41 | 90 | 5.10 | -71 | 7 | 08/28/2025 02:15 PM |
| 50494 | 15.6 | 3.83 | 0 | 100 | 41 | 89 | 5.10 | -72 | 8 | 08/28/2025 02:00 PM |
| 50493 | 15.6 | 3.83 | 0 | 98 | 41 | 88 | 5.10 | -71 | 7 | 08/28/2025 01:45 PM |
| 50492 | 15.6 | 3.83 | 0 | 97 | 41 | 88 | 5.10 | -73 | 8 | 08/28/2025 01:30 PM |
| 50491 | 15.6 | 3.83 | 0 | 95 | 41 | 86 | 5.10 | -72 | 8 | 08/28/2025 01:15 PM |
| 50490 | 15.6 | 3.96 | 0 | 95 | 41 | 86 | 5.10 | -71 | 7 | 08/28/2025 01:00 PM |
| 50489 | 15.6 | 3.83 | 0 | 93 | 41 | 86 | 5.10 | -72 | 7 | 08/28/2025 12:45 PM |
| 50488 | 15.6 | 4.00 | 0 | 91 | 41 | 85 | 5.10 | -74 | 8 | 08/28/2025 12:30 PM |
| 50487 | 15.6 | 3.83 | 0 | 89 | 41 | 86 | 5.10 | -71 | 7 | 08/28/2025 12:15 PM |
| 50486 | 15.6 | 3.83 | 0 | 87 | 41 | 85 | 5.10 | -72 | 8 | 08/28/2025 12:00 PM |
| 50485 | 15.6 | 3.83 | 0 | 85 | 41 | 82 | 5.10 | -73 | 8 | 08/28/2025 11:45 AM |
| 50484 | 15.6 | 3.83 | 0 | 82 | 42 | 78 | 5.10 | -72 | 8 | 08/28/2025 11:30 AM |
| 50483 | 15.6 | 3.83 | 0 | 81 | 42 | 79 | 5.10 | -76 | 8 | 08/28/2025 11:15 AM |
| 50482 | 15.6 | 3.88 | 0 | 80 | 42 | 75 | 5.10 | -74 | 8 | 08/28/2025 11:00 AM |